www.pogodaiklimat.ru

Погода и климат >> Архив погоды >> Великобритания >> Абердарон


ПОГОДА в Абердароне

  • Прогноз погоды в Абердароне
  • Монитор погоды в Абердароне

АРХИВ ПОГОДЫ в Абердароне

Время (UTC), дата Ветер
(напр.,м/с)
 
Видим.   Явления Облачность Т
(С)
Тd
(С)
f
(%)
Тe
(С)
Тes
(С)
Комфортность P
(гПа)
Po
(гПа)
Тmin
(С)
Tmax
(С)
R
(мм)
R24
(мм)
S
(см)
04 12.06 С 10
{14}
11 км н/о +9.1 +8.6 97 +4 +4 1015.6 1004.0
05 12.06 С 8
{13}
10 км н/о +8.9 +8.5 97 +4 +4 1015.6 1004.0
06 12.06 С 8 9000 м н/о +8.8 +8.5 98 +4 +4 1015.3 1003.7 +8.7 8
07 12.06 С 9 10 км н/о +8.8 +8.5 98 +4 +4 1014.8 1003.2
08 12.06 СВ 11
{14}
30 км н/о +9.3 +8.9 97 +4 +4 1014.4 1002.8
09 12.06 С 11
{16}
35 км н/о +9.4 +8.7 95 +4 +4 1014.2 1002.6
10 12.06 С 12-17
{17}
30 км н/о +10.1 +9.1 94 +5 +5 1013.6 1002.1
11 12.06 С 12
{17}
29 км н/о +10.7 +9.7 94 +6 +6 1013.5 1002.0
12 12.06 С 11
{16}
20 км н/о +10.9 +10.0 94 +6 +6 1013.1 1001.6 2
13 12.06 С 11
{15}
29 км н/о +10.9 +9.9 94 +6 +6 1012.8 1001.3
14 12.06 С 11
{15}
30 км н/о +11.2 +10.0 92 +7 +7 1012.4 1000.9
15 12.06 С 10
{15}
35 км н/о +11.5 +9.7 89 +8 +8 1012.0 1000.6
16 12.06 С 11
{15}
30 км н/о +11.5 +9.8 89 +7 +7 1011.6 1000.1
17 12.06 С 10
{15}
35 км н/о +11.1 +9.5 90 +7 +7 1011.5 1000.0
18 12.06 С 10
{14}
40 км н/о +11.1 +9.5 90 +7 +7 1010.7 999.2 +12.2 2
19 12.06 С 10
{13}
40 км н/о +10.8 +9.9 94 +7 +7 1009.9 998.4
20 12.06 С 8
{13}
30 км н/о +10.9 +10.2 95 +7 +7 1009.6 998.2
21 12.06 С 8
{13}
20 км н/о +10.8 +10.3 97 +7 +7 1009.3 997.9
22 12.06 С 7 8000 м н/о +10.8 +10.5 98 +7 +7 1008.8 997.4
23 12.06 С 7 9000 м н/о +10.8 +10.7 99 +7 +7 1008.2 996.8
00 13.06 С 9 10 км н/о +10.7 +10.7 100 +6 +6 1007.5 996.1 2
01 13.06 С 8 15 км н/о +10.8 +10.7 99 +7 +7 1006.8 995.4
02 13.06 С 9
{13}
10 км н/о +10.7 +10.6 99 +6 +6 1006.0 994.6
03 13.06 С 9 13 км н/о +10.6 +10.6 100 +6 +6 1005.3 993.9
04 13.06 С 9 16 км н/о +10.6 +10.6 100 +6 +6 1005.1 993.7
05 13.06 С 11
{14}
11 км н/о +10.4 +10.3 99 +6 +6 1005.0 993.5
06 13.06 С 11
{15}
12 км н/о +9.9 +9.7 99 +5 +5 1005.0 993.6 +9.9 4
07 13.06 С 10
{15}
26 км н/о +9.8 +9.4 97 +5 +5 1005.3 993.9
08 13.06 С 11
{15}
35 км н/о +9.9 +9.0 94 +5 +5 1005.4 993.9
09 13.06 С 11
{15}
11 км н/о +10.0 +9.3 95 +5 +5 1005.4 994.0
10 13.06 С 9
{14}
35 км н/о +10.3 +9.1 92 +6 +6 1005.5 994.1
11 13.06 С 9 40 км н/о +10.5 +9.3 92 +6 +6 1005.7 994.3
12 13.06 С 8 50 км н/о +10.7 +8.5 86 +7 +7 1005.8 994.4 0.2
13 13.06 С 7 45 км н/о +11.5 +8.8 83 +8 +8 1006.0 994.7
14 13.06 С 7 70 км н/о +11.8 +8.1 78 +9 +9 1006.3 994.9
15 13.06 СЗ 5 60 км н/о +11.5 +8.8 83 +9 +9 1006.3 994.9
16 13.06 СЗ 5 >70 км н/о +10.4 +7.6 83 +8 +8 1006.5 995.0
17 13.06 З 4 55 км н/о +10.6 +9.1 90 +8 +8 1006.4 994.9
18 13.06 З 4 25 км н/о +9.7 +8.8 94 +7 +7 1006.3 994.8 +12.2 0.2
19 13.06 З 4 30 км н/о +9.5 +7.9 90 +7 +7 1006.4 995.0
20 13.06 ЮЗ 4 25 км н/о +9.3 +8.4 94 +6 +6 1006.7 995.2
21 13.06 З 5 35 км н/о +9.6 +8.8 95 +6 +6 1007.1 995.6
22 13.06 Ю 4 40 км н/о +9.4 +8.6 95 +7 +7 1007.0 995.5
23 13.06 ЮЗ 5 18 км н/о +9.5 +9.2 98 +6 +6 1006.8 995.3
00 14.06 З 3 28 км н/о +9.2 +8.8 97 +7 +7 1006.3 994.9 0.2
01 14.06 З 3 10 км н/о +8.8 +8.3 97 +6 +6 1006.0 994.5
02 14.06 В 1 30 км н/о +8.4 +7.5 94 +7 +7 1005.6 994.1
03 14.06 ЮЗ 2 45 км н/о +8.3 +6.9 91 +7 +7 1005.5 994.0
04 14.06 ЮЗ 3 40 км н/о +8.7 +7.1 90 +6 +6 1005.6 994.1
05 14.06 ЮЗ 4 35 км н/о +9.3 +8.1 92 +6 +6 1005.8 994.3
06 14.06 ЮЗ 5 40 км н/о +9.6 +8.2 91 +6 +6 1006.0 994.5 +7.9 0.6
07 14.06 ЮЗ 4 50 км н/о +10.0 +8.3 89 +7 +7 1006.1 994.6
08 14.06 ЮЗ 6 45 км н/о +10.6 +8.7 88 +7 +7 1006.6 995.2
09 14.06 Ю 6 55 км н/о +11.6 +9.0 84 +9 +9 1007.0 995.5
10 14.06 Ю 7 45 км н/о +12.7 +9.4 80 +10 +10 1007.1 995.7
11 14.06 Ю 7 45 км н/о +12.5 +9.2 80 +10 +10 1007.3 995.9
12 14.06 Ю 7 40 км н/о +12.1 +9.3 83 +9 +9 1007.5 996.1
13 14.06 Ю 7 35 км н/о +12.8 +9.9 83 +10 +10 1007.4 996.0
14 14.06 Ю 8 30 км н/о +12.6 +9.4 81 +10 +10 1007.4 996.1
15 14.06 Ю 9 29 км н/о +12.1 +9.3 83 +9 +9 1007.5 996.2
16 14.06 Ю 9 25 км н/о +11.8 +10.1 89 +8 +8 1007.4 996.0
17 14.06 Ю 9
{13}
23 км н/о +12.1 +10.2 88 +9 +9 1007.5 996.2
18 14.06 Ю 10 18 км н/о +11.8 +10.2 90 +8 +8 1007.7 996.3 +13.0 0.2
19 14.06 Ю 9 8000 м н/о +11.8 +10.4 91 +8 +8 1007.8 996.4
20 14.06 Ю 10
{14}
14 км н/о +11.4 +10.6 95 +7 +7 1007.8 996.4
21 14.06 Ю 10
{13}
13 км н/о +11.4 +10.4 94 +7 +7 1008.1 996.7
22 14.06 Ю 8 12 км н/о +11.2 +10.2 94 +7 +7 1008.2 996.7
23 14.06 Ю 8 11 км н/о +11.2 +10.3 94 +8 +8 1008.0 996.6
00 15.06 Ю 7 21 км н/о +11.2 +10.1 93 +8 +8 1007.7 996.3 1
01 15.06 ЮВ 7 12 км н/о +11.4 +10.2 92 +8 +8 1007.5 996.1
02 15.06 ЮВ 9 13 км н/о +11.2 +10.2 94 +7 +7 1007.2 995.8
03 15.06 ЮВ 9
{13}
13 км н/о +11.0 +9.8 92 +7 +7 1006.5 995.1
04 15.06 ЮВ 11
{16}
14 км н/о +11.2 +9.5 89 +7 +7 1005.8 994.4
05 15.06 Ю 9
{17}
3000 м н/о +10.9 +10.3 96 +7 +7 1005.4 994.0
06 15.06 Ю 12
{17}
27 км н/о +9.9 +9.2 95 +5 +5 1006.1 994.6 +9.6 3
07 15.06 ЮЗ 12
{16}
22 км н/о +10.0 +8.6 91 +5 +5 1007.0 995.5
08 15.06 ЮЗ 11
{14}
30 км н/о +10.8 +8.8 87 +6 +6 1007.8 996.4
09 15.06 ЮЗ 9
{13}
30 км н/о +12.0 +10.1 88 +9 +9 1008.5 997.1
10 15.06 ЮЗ 8 45 км н/о +12.5 +10.2 86 +9 +9 1009.1 997.7
11 15.06 ЮЗ 9 40 км н/о +13.0 +9.9 81 +10 +10 1009.7 998.4
12 15.06 ЮЗ 9 45 км н/о +13.1 +10.0 81 +10 +10 1010.2 998.9
13 15.06 ЮЗ 9 65 км н/о +13.9 +7.2 64 +11 +11 1010.2 998.9
14 15.06 ЮЗ 8 40 км н/о +13.9 +7.9 67 +12 +12 1010.5 999.1
15 15.06 ЮЗ 7 45 км н/о +13.5 +9.1 75 +11 +11 1010.5 999.1
16 15.06 ЮЗ 8 40 км н/о +13.1 +8.6 74 +10 +10 1010.8 999.4
17 15.06 ЮЗ 8 40 км н/о +12.0 +7.5 74 +9 +9 1010.9 999.4
18 15.06 ЮЗ 8 30 км н/о +11.6 +8.3 80 +8 +8 1011.1 999.7 +14.3
19 15.06 ЮЗ 9 35 км н/о +11.1 +8.4 83 +7 +7 1011.1 999.7
20 15.06 Ю 8 35 км н/о +11.0 +8.7 86 +7 +7 1011.3 999.8
21 15.06 ЮЗ 8 40 км н/о +10.9 +8.9 87 +7 +7 1011.6 1000.1
22 15.06 Ю 7 40 км н/о +11.1 +9.1 87 +8 +8 1011.8 1000.4
23 15.06 ЮЗ 8 35 км н/о +11.1 +9.7 91 +7 +7 1011.8 1000.4
00 16.06 ЮЗ 8 30 км н/о +10.7 +9.7 94 +7 +7 1011.9 1000.4
01 16.06 ЮЗ 7 30 км н/о +10.6 +9.8 95 +7 +7 1011.8 1000.3
02 16.06 Ю 7 30 км н/о +10.6 +9.8 95 +7 +7 1011.7 1000.2
03 16.06 Ю 7 35 км н/о +10.9 +9.7 92 +7 +7 1011.4 999.9
04 16.06 Ю 7 29 км н/о +11.1 +10.1 94 +8 +8 1011.2 999.7
05 16.06 Ю 7 40 км н/о +10.8 +8.9 88 +7 +7 1011.0 999.6
06 16.06 ЮЗ 8 30 км н/о +11.0 +9.6 91 +7 +7 1011.2 999.7 +10.5
07 16.06 ЮЗ 5 29 км н/о +11.8 +9.6 86 +9 +9 1011.4 1000.0
08 16.06 Ю 5 30 км н/о +12.3 +11.1 92 +10 +10 1011.7 1000.2
09 16.06 Ю 5 30 км н/о +12.5 +11.1 91 +10 +10 1011.4 1000.0
10 16.06 Ю 9 28 км н/о +13.4 +12.2 92 +10 +10 1011.4 1000.0
11 16.06 Ю 11
{13}
23 км н/о +14.0 +12.0 88 +11 +11 1011.4 1000.0
12 16.06 Ю 13
{16}
27 км н/о +13.9 +11.2 84 +11 +11 1011.6 1000.2
13 16.06 ЮЗ 11
{17}
27 км н/о +14.2 +12.0 87 +11 +11 1012.3 1001.0
14 16.06 Ю 10
{14}
19 км н/о +14.1 +12.0 87 +11 +11 1012.3 1001.0
15 16.06 Ю 11
{14}
10 км н/о +12.3 +11.6 95 +8 +8 1012.3 1000.9
16 16.06 Ю 10
{14}
100 м н/о +11.9 +11.9 100 +8 +8 1011.8 1000.4
17 16.06 ЮЗ 12
{16}
400 м н/о +12.1 +12.1 100 +8 +8 1011.3 999.9
18 16.06 Ю 13
{16}
10 км н/о +12.4 +12.3 99 +8 +8 1011.2 999.7 +14.8 3
19 16.06 Ю 15
{19}
10 км н/о +12.4 +11.9 97 +8 +8 1011.1 999.7
20 16.06 Ю 16
{20}
8000 м н/о +12.2 +11.9 98 +8 +8 1011.1 999.7
21 16.06 Ю 15
{19}
1900 м н/о +12.0 +12.0 100 +7 +7 1011.3 999.9
22 16.06 ЮЗ 14
{19}
4600 м н/о +12.0 +12.0 100 +7 +7 1011.7 1000.3
23 16.06 ЮЗ 12
{16}
15 км н/о +11.3 +11.3 100 +7 +7 1011.9 1000.4
00 17.06 ЮЗ 11
{15}
19 км н/о +11.0 +10.6 97 +6 +6 1012.1 1000.6 2
01 17.06 ЮЗ 10
{14}
15 км н/о +11.3 +11.1 99 +7 +7 1012.5 1001.0
02 17.06 ЮЗ 11
{14}
15 км н/о +11.3 +11.1 99 +7 +7 1012.4 1001.0
03 17.06 ЮЗ 10
{13}
14 км н/о +11.2 +10.9 98 +7 +7 1012.4 1001.0
04 17.06 ЮЗ 10 15 км н/о +11.3 +11.0 98 +7 +7 1012.8 1001.3
05 17.06 Ю 9 19 км н/о +11.3 +11.0 98 +7 +7 1012.8 1001.3
06 17.06 ЮЗ 9 8000 м н/о +11.8 +11.7 99 +8 +8 1013.2 1001.7 +10.9 2
07 17.06 ЮЗ 10 10 км н/о +11.9 +11.7 99 +8 +8 1013.3 1001.8
08 17.06 Ю 9 11 км н/о +12.1 +11.8 98 +9 +9 1013.9 1002.4
09 17.06 Ю 9 12 км н/о +12.4 +12.0 97 +9 +9 1014.0 1002.6
10 17.06 Ю 10 16 км н/о +13.1 +12.1 94 +10 +10 1014.2 1002.7
11 17.06 Ю 10 16 км н/о +13.4 +12.3 93 +10 +10 1014.4 1003.0
12 17.06 Ю 10
{13}
17 км н/о +14.1 +12.7 91 +11 +11 1014.5 1003.1
13 17.06 ЮЗ 10
{13}
23 км н/о +14.6 +13.0 90 +12 +12 1014.6 1003.3
14 17.06 ЮЗ 9 26 км н/о +14.6 +13.1 91 +12 +12 1014.7 1003.4
15 17.06 ЮЗ 9 23 км н/о +14.1 +12.3 89 +11 +11 1014.5 1003.2
16 17.06 ЮЗ 9 23 км н/о +13.9 +12.2 89 +11 +11 1014.5 1003.1
17 17.06 ЮЗ 9 20 км н/о +13.6 +11.9 89 +11 +11 1014.7 1003.3
18 17.06 ЮЗ 9 20 км н/о +12.9 +11.3 90 +10 +10 1014.5 1003.0 +14.9
19 17.06 ЮЗ 9 14 км н/о +12.5 +11.4 93 +9 +9 1014.5 1003.1
20 17.06 ЮЗ 9 12 км н/о +11.9 +11.2 95 +8 +8 1014.7 1003.2
21 17.06 Ю 9 12 км н/о +11.6 +11.3 98 +8 +8 1015.0 1003.5
22 17.06 Ю 9 12 км н/о +11.6 +11.3 98 +8 +8 1015.2 1003.7
23 17.06 ЮЗ 10 12 км н/о +11.6 +11.4 99 +8 +8 1015.1 1003.7
00 18.06 ЮЗ 8 10 км н/о +11.6 +11.5 99 +8 +8 1015.2 1003.7
01 18.06 ЮЗ 8 11 км н/о +11.5 +11.5 100 +8 +8 1015.0 1003.5
02 18.06 ЮЗ 8 22 км н/о +11.3 +11.3 100 +8 +8 1014.7 1003.2
03 18.06 ЮЗ 7
{13}
3400 м н/о +11.6 +11.2 97 +8 +8 1014.7 1003.2
04 18.06 ЮЗ 6 15 км н/о +11.1 +10.9 99 +8 +8 1014.4 1002.9
05 18.06 ЮЗ 5 4600 м н/о +11.4 +11.3 99 +9 +9 1014.4 1002.9
06 18.06 ЮЗ 4 1200 м н/о +11.9 +11.9 100 +10 +10 1014.6 1003.1 +11.1
07 18.06 ЮЗ 4 18 км н/о +12.0 +12.0 100 +10 +10 1014.8 1003.3
08 18.06 ЮЗ 3 17 км н/о +13.0 +12.7 98 +11 +11 1014.8 1003.4
09 18.06 Ю 3 21 км н/о +13.0 +12.4 96 +11 +11 1014.6 1003.2
10 18.06 ЮЗ 3 26 км н/о +13.4 +12.2 92 +12 +12 1014.4 1003.0
11 18.06 Ю 4 23 км н/о +14.3 +13.1 92 +13 +13 1014.5 1003.1
12 18.06 Ю 3 24 км н/о +13.8 +12.0 89 +13 +13 1014.4 1003.0
13 18.06 Ю 3 28 км н/о +13.5 +11.2 86 +12 +12 1014.1 1002.7
14 18.06 Ю 3 30 км н/о +13.6 +11.8 89 +13 +13 1013.9 1002.5
15 18.06 Ю 3 40 км н/о +13.6 +11.6 88 +13 +13 1013.5 1002.1
16 18.06 ЮЗ 2 40 км н/о +14.3 +11.2 82 +14 +14 1012.8 1001.4
17 18.06 Ю 2 30 км н/о +13.1 +11.3 89 +12 +12 1012.7 1001.3
18 18.06 Ю 3 22 км н/о +12.6 +11.5 93 +11 +11 1012.7 1001.3 +14.7
19 18.06 ЮЗ 2 16 км н/о +12.1 +11.5 96 +11 +11 1012.4 1001.0
20 18.06 ЮЗ 2 22 км н/о +11.8 +11.1 95 +11 +11 1012.3 1000.8
21 18.06 ЮЗ 2 18 км н/о +11.7 +11.1 96 +11 +11 1012.4 1000.9
22 18.06 Ю 1 9000 м н/о +11.6 +11.0 96 +11 +11 1012.3 1000.8
23 18.06 Ю 2 7000 м н/о +11.3 +11.0 98 +10 +10 1011.9 1000.5
00 19.06 Ю 2 100 м н/о +11.3 +11.3 100 +10 +10 1011.3 999.8
01 19.06 Ю 3 200 м н/о +11.0 +11.0 100 +9 +9 1010.8 999.3
02 19.06 Ю 3 30 км н/о +10.5 +10.4 99 +8 +8 1010.5 999.0
03 19.06 Ю 2 21 км н/о +10.5 +10.3 99 +9 +9 1010.1 998.6
04 19.06 ЮЗ 3 17 км н/о +10.5 +10.4 99 +8 +8 1010.0 998.5

 

Местоположение метеостанции Абердарон (Великобритания): широта 52.78 долгота -4.73 высота над уровнем моря 94 м.

В архиве по умолчанию представлена погода в Абердароне за последнюю неделю. Архивные данные за месяц целиком и за предыдущие месяцы, начиная с января 2011 года, Вы можете получить, выбрав интересующий диапазон дат из раскрывающегося списка и нажав кнопку "Ввод!".


*Определитесь, кто Вы:
робот инопланетянин человек

Внимание! Время в таблицах - всемирное. Для получения местного времени необходимо прибавить поправку, которая равна 0 ч.

Смотрите также архив погоды в соседних городах и на ближайших метеорологических станциях:

Погода в Вэлли (Великобритания) (54 км)
Погода в Моне (Великобритания) (58 км)
Погода в Кейпл Кериг (Великобритания) (64 км)
Погода в Троскоеде (Великобритания) (71 км)
Погода в Аберпорте (Великобритания) (73 км)
Погода в Бала (Великобритания) (79 км)
Погода на Озере Вирнви (Великобритания) (85 км)
Погода в Риле (Великобритания) (98 км)
Погода в Сеннибридже (Великобритания) (109 км)
Погода в Пембри Сэндс (Великобритания) (120 км)

Пояснения к столбцам:

Ветер - указаны скорость ветра в м/с - средняя за 10 мин, порывы в срок и между сроками (в фигурных скобках) и направление, откуда дует ветер: С - северный, СВ - северо-восточный, В - восточный, ЮВ - юго-восточный, Ю - южный, ЮЗ - юго-западный, З - западный, СЗ - северо-западный.
Видимость - горизонтальная дальность видимости в метрах или километрах. При видимости от 1 до 10 км при отсутствии осадков обычно наблюдается дымка, при ухудшении видимости до 1 км и менее - туман. В сухую погоду видимость может ухудшаться дымом, пылью или мглою.
Явления - указаны атмосферные явления, наблюдавшиеся в срок или в последний час перед сроком; фигурными скобками обозначены явления, наблюдавшиеся между сроками (за 1-3 часа до срока); квадратными скобками обозначены град или гололедные отложения с указанием их диаметра в мм.
Облачность - указаны через наклонную черту общая и нижняя облачность в баллах и высота нижней границы облаков в метрах; квадратными скобками обозначены формы облаков: Ci - перистые, Cs - перисто-слоистые, Cc - перисто-кучевые, Ac - высококучевые, As - высокослоистые, Sc - слоисто-кучевые, Ns - слоисто-дождевые, Cu - кучевые, Cb - кучево-дождевые. Подробнее классификацию облаков см. в Атласе облаков (PDF).
T - Температура воздуха - температура, измеренная на высоте 2 м над землей.
Td - Температура точки росы - температура, при понижении до которой содержащийся в воздухе водяной пар достигнет насыщения.
f - Относительная влажность воздуха - влажноcть воздуха, измеренная на высоте 2 м над землей.
Te - Эффективная температура - температура, которую ощущает одетый по сезону человек в тени. Характеристика душности погоды. При расчете учитывается влияние влажности воздуха и скорости ветра на теплоощущения человека.
Tes - Эффективная температура на солнце - температура, которую ощущает человек, с поправкой на солнечный нагрев. Характеристика знойности погоды. Зависит от высоты солнца над горизонтом, облачности и скорости ветра. Ночью, в пасмурную погоду, а также при ветре 12 м/с и более поправка равна нулю.
P - Атмосферное давление - приведенное к уровню моря атмосферное давление.
Po - Атмосферное давление - измеренное на уровне метеостанции атмосферное давление.
Tmin - Минимальная температура - минимум температуры воздуха на высоте 2 м над землей.
Tmax - Максимальная температура - максимум температуры воздуха на высоте 2 м над землей.
R - Количество осадков - Количество выпавших осадков за период времени, мм. При наведении курсора мыши на число - период времени, за который выпало указанное количество осадков.
R24 - Количество осадков - Количество выпавших осадков за 24 часа, мм.
S - Снежный покров - Высота снежного покрова, см. При наведении курсора мыши на число - состояние снежного покрова и степень покрытия местности в баллах.